| time (UTC) | temp F | wind direction | speed MPH | gust MPH | rain 1hr in | rain 24hr in | rain mn in | humidity % | barometer mb |
| 20260905215250 | 72 | 225 | 1.0 | 23.0 | 0.00 | 0.00 | 0.00 | 50 | 1025.4 |
| 20260905214245 | 72 | 135 | 39.0 | 40.0 | 0.00 | 0.00 | 0.00 | 50 | 1025.3 |
| 20260905213742 | 72 | 270 | 0.0 | 40.0 | 0.00 | 0.00 | 0.00 | 50 | 1025.3 |
| 20260905213240 | 71 | 180 | 2.0 | 33.0 | 0.00 | 0.00 | 0.00 | 50 | 1025.3 |
| 20260905212738 | 71 | 180 | 0.0 | 38.0 | 0.00 | 0.00 | 0.00 | 50 | 1025.3 |
| 20260905212235 | 72 | 180 | 0.0 | 40.0 | 0.00 | 0.00 | 0.00 | 50 | 1025.2 |
| 20260905211733 | 72 | 225 | 1.0 | 44.0 | 0.00 | 0.00 | 0.00 | 50 | 1025.1 |
| 20260905211230 | 72 | 225 | 2.0 | 25.0 | 0.00 | 0.00 | 0.00 | 50 | 1025.2 |
| 20260905210226 | 72 | 180 | 21.0 | 35.0 | 0.00 | 0.00 | 0.00 | 50 | 1025.0 |
| 20260905205723 | 71 | 180 | 2.0 | 38.0 | 0.00 | 0.00 | 0.00 | 50 | 1025.0 |
| 20260905205221 | 71 | 180 | 2.0 | 22.0 | 0.00 | 0.00 | 0.00 | 49 | 1025.0 |
| 20260905204718 | 71 | 180 | 1.0 | 22.0 | 0.00 | 0.00 | 0.00 | 49 | 1025.0 |
| 20260905204216 | 71 | 180 | 13.0 | 39.0 | 0.00 | 0.00 | 0.00 | 49 | 1025.0 |
| 20260905203714 | 71 | 180 | 1.0 | 22.0 | 0.00 | 0.00 | 0.00 | 49 | 1025.0 |
| 20260905203211 | 71 | 225 | 1.0 | 22.0 | 0.00 | 0.00 | 0.00 | 49 | 1025.0 |
| 20260905202206 | 71 | 225 | 0.0 | 21.0 | 0.00 | 0.00 | 0.00 | 49 | 1024.9 |
| 20260905201704 | 71 | 225 | 1.0 | 40.0 | 0.00 | 0.00 | 0.00 | 49 | 1024.9 |
| 20260905201201 | 71 | 180 | 0.0 | 21.0 | 0.00 | 0.00 | 0.00 | 48 | 1024.9 |
| 20260905200659 | 72 | 315 | 15.0 | 20.0 | 0.00 | 0.00 | 0.00 | 48 | 1024.8 |
| 20260905200157 | 72 | 270 | 0.0 | 21.0 | 0.00 | 0.00 | 0.00 | 48 | 1024.8 |
| 20260905195654 | 73 | 180 | 0.0 | 23.0 | 0.00 | 0.00 | 0.00 | 48 | 1024.7 |
| 20260905195152 | 73 | 225 | 3.0 | 39.0 | 0.00 | 0.00 | 0.00 | 48 | 1024.7 |
| 20260905194649 | 73 | 225 | 1.0 | 23.0 | 0.00 | 0.00 | 0.00 | 48 | 1024.6 |
| 20260905194147 | 73 | 225 | 19.0 | 23.0 | 0.00 | 0.00 | 0.00 | 47 | 1024.5 |
| 20260905193645 | 73 | 225 | 0.0 | 22.0 | 0.00 | 0.00 | 0.00 | 47 | 1024.4 |
| 20260905193142 | 74 | 225 | 6.0 | 23.0 | 0.00 | 0.00 | 0.00 | 47 | 1024.5 |
| 20260905192640 | 74 | 180 | 20.0 | 35.0 | 0.00 | 0.00 | 0.00 | 47 | 1024.5 |
| 20260905192137 | 74 | 180 | 1.0 | 41.0 | 0.00 | 0.00 | 0.00 | 47 | 1024.4 |
| 20260905191635 | 74 | 225 | 2.0 | 44.0 | 0.00 | 0.00 | 0.00 | 47 | 1024.4 |
| 20260905191133 | 74 | 180 | 17.0 | 22.0 | 0.00 | 0.00 | 0.00 | 47 | 1024.3 |
| 20260905190630 | 74 | 270 | 1.0 | 36.0 | 0.00 | 0.00 | 0.00 | 47 | 1024.3 |
| 20260905190128 | 74 | 180 | 2.0 | 24.0 | 0.00 | 0.00 | 0.00 | 46 | 1024.3 |
| 20260905185625 | 74 | 135 | 2.0 | 35.0 | 0.00 | 0.00 | 0.00 | 46 | 1024.3 |
| 20260905185123 | 74 | 225 | 21.0 | 21.0 | 0.00 | 0.00 | 0.00 | 46 | 1024.2 |
| 20260905184621 | 75 | 180 | 1.0 | 50.0 | 0.00 | 0.00 | 0.00 | 46 | 1024.1 |
| 20260905184118 | 75 | 180 | 1.0 | 23.0 | 0.00 | 0.00 | 0.00 | 46 | 1024.0 |
| 20260905183616 | 75 | 225 | 20.0 | 24.0 | 0.00 | 0.00 | 0.00 | 45 | 1024.0 |
| 20260905183113 | 75 | 270 | 2.0 | 30.0 | 0.00 | 0.00 | 0.00 | 45 | 1023.9 |
| 20260905182611 | 75 | 180 | 1.0 | 36.0 | 0.00 | 0.00 | 0.00 | 45 | 1023.8 |
| 20260905182108 | 75 | 225 | 2.0 | 29.0 | 0.00 | 0.00 | 0.00 | 45 | 1023.7 |
| 20260905181606 | 75 | 225 | 1.0 | 25.0 | 0.00 | 0.00 | 0.00 | 45 | 1023.7 |
| 20260905181104 | 75 | 180 | 20.0 | 21.0 | 0.00 | 0.00 | 0.00 | 44 | 1023.7 |
| 20260905180601 | 75 | 180 | 0.0 | 21.0 | 0.00 | 0.00 | 0.00 | 44 | 1023.6 |
| 20260905180059 | 75 | 180 | 0.0 | 20.0 | 0.00 | 0.00 | 0.00 | 44 | 1023.5 |
| 20260905175556 | 76 | 225 | 1.0 | 41.0 | 0.00 | 0.00 | 0.00 | 43 | 1023.4 |
| 20260905175054 | 76 | 225 | 1.0 | 23.0 | 0.00 | 0.00 | 0.00 | 43 | 1023.4 |
| 20260905174552 | 76 | 270 | 18.0 | 22.0 | 0.00 | 0.00 | 0.00 | 43 | 1023.3 |
| 20260905174049 | 76 | 225 | 3.0 | 43.0 | 0.00 | 0.00 | 0.00 | 42 | 1023.2 |
| 20260905173547 | 76 | 225 | 4.0 | 22.0 | 0.00 | 0.00 | 0.00 | 42 | 1023.1 |
| 20260905173044 | 77 | 225 | 2.0 | 22.0 | 0.00 | 0.00 | 0.00 | 42 | 1023.1 |
| 20260905172542 | 77 | 225 | 20.0 | 38.0 | 0.00 | 0.00 | 0.00 | 41 | 1023.0 |
| 20260905172040 | 77 | 270 | 29.0 | 38.0 | 0.00 | 0.00 | 0.00 | 41 | 1023.1 |
| 20260905171537 | 77 | 180 | 2.0 | 40.0 | 0.00 | 0.00 | 0.00 | 41 | 1022.9 |
| 20260905171035 | 78 | 180 | 4.0 | 22.0 | 0.00 | 0.00 | 0.00 | 40 | 1022.9 |
| 20260905170532 | 78 | 225 | 4.0 | 46.0 | 0.00 | 0.00 | 0.00 | 40 | 1022.9 |
| 20260905170030 | 79 | 225 | 3.0 | 24.0 | 0.00 | 0.00 | 0.00 | 39 | 1022.9 |
| 20260905165527 | 81 | 270 | 3.0 | 22.0 | 0.00 | 0.00 | 0.00 | 38 | 1022.9 |
| 20260905165025 | 81 | 225 | 4.0 | 25.0 | 0.00 | 0.00 | 0.00 | 39 | 1022.9 |
| 20260905164523 | 82 | 180 | 3.0 | 37.0 | 0.00 | 0.00 | 0.00 | 38 | 1022.7 |
| 20260905164020 | 82 | 225 | 6.0 | 26.0 | 0.00 | 0.00 | 0.00 | 38 | 1022.7 |
| 20260905163518 | 83 | 180 | 2.0 | 35.0 | 0.00 | 0.00 | 0.00 | 38 | 1022.7 |
| 20260905163015 | 84 | 270 | 2.0 | 38.0 | 0.00 | 0.00 | 0.00 | 38 | 1022.6 |
| 20260905162513 | 84 | 180 | 6.0 | 39.0 | 0.00 | 0.00 | 0.00 | 37 | 1022.5 |
| 20260905162011 | 84 | 180 | 5.0 | 24.0 | 0.00 | 0.00 | 0.00 | 37 | 1022.5 |
| 20260905161508 | 84 | 180 | 2.0 | 35.0 | 0.00 | 0.00 | 0.00 | 38 | 1022.5 |
| 20260905161006 | 85 | 180 | 20.0 | 40.0 | 0.00 | 0.00 | 0.00 | 37 | 1022.5 |
| 20260905160503 | 85 | 180 | 21.0 | 32.0 | 0.00 | 0.00 | 0.00 | 37 | 1022.4 |
| 20260905160001 | 85 | 270 | 20.0 | 39.0 | 0.00 | 0.00 | 0.00 | 38 | 1022.5 |
| 20260905155458 | 85 | 135 | 4.0 | 25.0 | 0.00 | 0.00 | 0.00 | 38 | 1022.4 |
| 20260905154956 | 85 | 180 | 6.0 | 35.0 | 0.00 | 0.00 | 0.00 | 38 | 1022.5 |
| 20260905154454 | 86 | 225 | 33.0 | 36.0 | 0.00 | 0.00 | 0.00 | 38 | 1022.5 |
| 20260905153951 | 86 | 225 | 20.0 | 33.0 | 0.00 | 0.00 | 0.00 | 39 | 1022.5 |
| 20260905153449 | 88 | 225 | 18.0 | 63.0 | 0.00 | 0.00 | 0.00 | 40 | 1022.5 |
| 20260905152946 | 87 | 270 | 3.0 | 43.0 | 0.00 | 0.00 | 0.00 | 39 | 1022.4 |
| 20260905152444 | 86 | 135 | 7.0 | 22.0 | 0.00 | 0.00 | 0.00 | 39 | 1022.3 |
| 20260905151942 | 86 | 180 | 37.0 | 67.0 | 0.00 | 0.00 | 0.00 | 39 | 1022.3 |
| 20260905151439 | 86 | 225 | 5.0 | 38.0 | 0.00 | 0.00 | 0.00 | 40 | 1022.4 |
| 20260905150937 | 89 | 45 | 1.0 | 46.0 | 0.00 | 0.00 | 0.00 | 42 | 1022.3 |
| 20260905150434 | 87 | 225 | 20.0 | 37.0 | 0.00 | 0.00 | 0.00 | 41 | 1022.4 |
| 20260905145932 | 87 | 180 | 6.0 | 35.0 | 0.00 | 0.00 | 0.00 | 40 | 1022.4 |
| 20260905145429 | 87 | 180 | 5.0 | 32.0 | 0.00 | 0.00 | 0.00 | 41 | 1022.4 |
| 20260905144927 | 87 | 180 | 11.0 | 48.0 | 0.00 | 0.00 | 0.00 | 41 | 1022.2 |
| 20260905144425 | 87 | 225 | 1.0 | 37.0 | 0.00 | 0.00 | 0.00 | 43 | 1022.4 |
| 20260905143922 | 87 | 225 | 6.0 | 23.0 | 0.00 | 0.00 | 0.00 | 43 | 1022.5 |
| 20260905143420 | 87 | 225 | 9.0 | 37.0 | 0.00 | 0.00 | 0.00 | 43 | 1022.4 |
| 20260905142917 | 86 | 225 | 20.0 | 38.0 | 0.00 | 0.00 | 0.00 | 44 | 1022.4 |
| 20260905142415 | 88 | 225 | 2.0 | 38.0 | 0.00 | 0.00 | 0.00 | 46 | 1022.4 |
| 20260905141913 | 89 | 270 | 16.0 | 30.0 | 0.00 | 0.00 | 0.00 | 46 | 1022.5 |
| 20260905141410 | 88 | 270 | 3.0 | 37.0 | 0.00 | 0.00 | 0.00 | 45 | 1022.4 |
| 20260905140908 | 87 | 270 | 2.0 | 45.0 | 0.00 | 0.00 | 0.00 | 47 | 1022.5 |
| 20260905135903 | 86 | 315 | 3.0 | 39.0 | 0.00 | 0.00 | 0.00 | 48 | 1022.5 |
| 20260905135401 | 87 | 270 | 5.0 | 55.0 | 0.00 | 0.00 | 0.00 | 48 | 1022.4 |
| 20260905134858 | 85 | 225 | 16.0 | 42.0 | 0.00 | 0.00 | 0.00 | 48 | 1022.4 |
| 20260905134356 | 86 | 225 | 19.0 | 41.0 | 0.00 | 0.00 | 0.00 | 48 | 1022.5 |
| 20260905133456 | 32 | 180 | 4.0 | 31.0 | 0.00 | 0.00 | 0.00 | 100 | 30.0 |
| 20260905132956 | 32 | 225 | 3.0 | 32.0 | 0.00 | 0.00 | 0.00 | 100 | 30.0 |
| 20260905132456 | 32 | 270 | 1.0 | 193.0 | 0.00 | 0.00 | 0.00 | 100 | 30.0 |
| 20260905131359 | 32 | 180 | 4.0 | 392.0 | 0.00 | 0.00 | 0.00 | 100 | 30.0 |
| 20260905130512 | 85 | 180 | 3.0 | 28.0 | 0.00 | 0.00 | 0.00 | 54 | 1022.9 |
| 20260905130009 | 84 | 225 | 15.0 | 55.0 | 0.00 | 0.00 | 0.00 | 53 | 1022.9 |
| 20260905125507 | 84 | 180 | 3.0 | 31.0 | 0.00 | 0.00 | 0.00 | 55 | 1022.9 |
| 20260905125005 | 85 | 180 | 8.0 | 39.0 | 0.00 | 0.00 | 0.00 | 54 | 1022.9 |
| 20260905124502 | 86 | 0 | 5.0 | 33.0 | 0.00 | 0.00 | 0.00 | 56 | 1023.1 |
| 20260905124000 | 85 | 225 | 6.0 | 43.0 | 0.00 | 0.00 | 0.00 | 56 | 1022.9 |
| 20260905123457 | 85 | 180 | 21.0 | 33.0 | 0.00 | 0.00 | 0.00 | 56 | 1022.9 |
| 20260905122955 | 83 | 180 | 3.0 | 37.0 | 0.00 | 0.00 | 0.00 | 56 | 1023.1 |
| 20260905122453 | 84 | 180 | 19.0 | 39.0 | 0.00 | 0.00 | 0.00 | 56 | 1023.0 |
| 20260905121950 | 84 | 180 | 5.0 | 36.0 | 0.00 | 0.00 | 0.00 | 56 | 1022.8 |
| 20260905120945 | 84 | 270 | 2.0 | 42.0 | 0.00 | 0.00 | 0.00 | 57 | 1022.9 |
| 20260905120443 | 83 | 270 | 1.0 | 42.0 | 0.00 | 0.00 | 0.00 | 58 | 1023.0 |
| 20260905115940 | 82 | 180 | 21.0 | 52.0 | 0.00 | 0.00 | 0.00 | 57 | 1022.9 |
| 20260905115438 | 82 | 45 | 4.0 | 42.0 | 0.00 | 0.00 | 0.00 | 57 | 1022.8 |
| 20260905114936 | 84 | 180 | 3.0 | 25.0 | 0.00 | 0.00 | 0.00 | 60 | 1023.0 |
| 20260905114433 | 83 | 180 | 7.0 | 44.0 | 0.00 | 0.00 | 0.00 | 58 | 1023.1 |
| 20260905113931 | 82 | 180 | 3.0 | 47.0 | 0.00 | 0.00 | 0.00 | 59 | 1023.2 |
| 20260905113428 | 82 | 225 | 4.0 | 42.0 | 0.00 | 0.00 | 0.00 | 60 | 1023.1 |
| 20260905112926 | 82 | 180 | 7.0 | 45.0 | 0.00 | 0.00 | 0.00 | 61 | 1023.0 |
| 20260905112424 | 79 | 225 | 4.0 | 61.0 | 0.00 | 0.00 | 0.00 | 60 | 1023.1 |
| 20260905111921 | 79 | 180 | 26.0 | 45.0 | 0.00 | 0.00 | 0.00 | 61 | 1023.0 |
| 20260905111419 | 81 | 225 | 25.0 | 48.0 | 0.00 | 0.00 | 0.00 | 62 | 1023.1 |
| 20260905110916 | 80 | 225 | 6.0 | 64.0 | 0.00 | 0.00 | 0.00 | 62 | 1023.1 |
| 20260905110414 | 80 | 225 | 17.0 | 26.0 | 0.00 | 0.00 | 0.00 | 64 | 1023.1 |
| 20260905105912 | 81 | 180 | 3.0 | 30.0 | 0.00 | 0.00 | 0.00 | 64 | 1023.0 |
| 20260905105409 | 79 | 180 | 9.0 | 44.0 | 0.00 | 0.00 | 0.00 | 64 | 1022.9 |
| 20260905103359 | 76 | 225 | 14.0 | 49.0 | 0.00 | 0.00 | 0.00 | 67 | 1023.1 |
| 20260905102857 | 76 | 225 | 7.0 | 46.0 | 0.00 | 0.00 | 0.00 | 68 | 1023.2 |
| 20260905102355 | 77 | 180 | 26.0 | 42.0 | 0.00 | 0.00 | 0.00 | 69 | 1023.1 |
| 20260905101852 | 75 | 225 | 3.0 | 42.0 | 0.00 | 0.00 | 0.00 | 71 | 1023.3 |
| 20260905101350 | 74 | 225 | 3.0 | 34.0 | 0.00 | 0.00 | 0.00 | 70 | 1023.3 |
| 20260905100847 | 74 | 180 | 8.0 | 59.0 | 0.00 | 0.00 | 0.00 | 70 | 1023.2 |
| 20260905100345 | 74 | 225 | 5.0 | 24.0 | 0.00 | 0.00 | 0.00 | 70 | 1023.3 |
| 20260905095843 | 73 | 225 | 3.0 | 40.0 | 0.00 | 0.00 | 0.00 | 70 | 1023.3 |
| 20260905095340 | 73 | 180 | 5.0 | 45.0 | 0.00 | 0.00 | 0.00 | 70 | 1023.2 |
| 20260905094838 | 73 | 225 | 4.0 | 39.0 | 0.00 | 0.00 | 0.00 | 70 | 1023.4 |
| 20260905094335 | 72 | 225 | 17.0 | 29.0 | 0.00 | 0.00 | 0.00 | 69 | 1023.2 |
| 20260905093833 | 72 | 180 | 2.0 | 52.0 | 0.00 | 0.00 | 0.00 | 70 | 1023.1 |
| 20260905093331 | 72 | 225 | 2.0 | 23.0 | 0.00 | 0.00 | 0.00 | 69 | 1023.0 |
| 20260905092828 | 71 | 225 | 2.0 | 41.0 | 0.00 | 0.00 | 0.00 | 69 | 1023.1 |
| 20260905092326 | 71 | 180 | 28.0 | 29.0 | 0.00 | 0.00 | 0.00 | 69 | 1023.1 |
| 20260905091823 | 71 | 180 | 36.0 | 42.0 | 0.00 | 0.00 | 0.00 | 68 | 1023.1 |
| 20260905090819 | 71 | 225 | 38.0 | 38.0 | 0.00 | 0.00 | 0.00 | 68 | 1023.1 |
| 20260905090316 | 70 | 315 | 0.0 | 37.0 | 0.00 | 0.00 | 0.00 | 69 | 1022.9 |
| 20260905085814 | 69 | 180 | 1.0 | 26.0 | 0.00 | 0.00 | 0.00 | 68 | 1023.0 |
| 20260905085311 | 69 | 225 | 3.0 | 24.0 | 0.00 | 0.00 | 0.00 | 67 | 1023.1 |
| 20260905084809 | 69 | 225 | 2.0 | 26.0 | 0.00 | 0.00 | 0.00 | 67 | 1023.0 |
| 20260905083302 | 68 | 180 | 1.0 | 21.0 | 0.00 | 0.00 | 0.00 | 66 | 1023.1 |
| 20260905081754 | 66 | 180 | 0.0 | 23.0 | 0.00 | 0.00 | 0.00 | 64 | 1023.3 |
| 20260905081252 | 65 | 180 | 0.0 | 26.0 | 0.00 | 0.00 | 0.00 | 63 | 1023.4 |
| 20260905080750 | 65 | 180 | 1.0 | 27.0 | 0.00 | 0.00 | 0.00 | 62 | 1023.5 |
| 20260905080247 | 65 | 225 | 22.0 | 34.0 | 0.00 | 0.00 | 0.00 | 61 | 1023.6 |
| 20260905075745 | 66 | 180 | 0.0 | 24.0 | 0.00 | 0.00 | 0.00 | 61 | 1023.6 |
| 20260905075242 | 68 | 180 | 1.0 | 35.0 | 0.00 | 0.00 | 0.00 | 60 | 1023.6 |
| 20260905074740 | 70 | 225 | 1.0 | 43.0 | 0.00 | 0.00 | 0.00 | 61 | 1023.6 |
| 20260905074237 | 70 | 180 | 1.0 | 28.0 | 0.00 | 0.00 | 0.00 | 61 | 1023.6 |
| 20260905073735 | 69 | 180 | 3.0 | 22.0 | 0.00 | 0.00 | 0.00 | 61 | 1023.7 |
| 20260905073233 | 69 | 180 | 0.0 | 12.0 | 0.00 | 0.00 | 0.00 | 61 | 1023.7 |
| 20260905072730 | 68 | 180 | 1.0 | 23.0 | 0.00 | 0.00 | 0.00 | 60 | 1023.7 |
| 20260905072228 | 68 | 225 | 0.0 | 24.0 | 0.00 | 0.00 | 0.00 | 60 | 1023.5 |
| 20260905071725 | 68 | 180 | 1.0 | 39.0 | 0.00 | 0.00 | 0.00 | 60 | 1023.4 |
| 20260905071223 | 68 | 225 | 1.0 | 43.0 | 0.00 | 0.00 | 0.00 | 60 | 1023.8 |
| 20260905070721 | 68 | 180 | 2.0 | 27.0 | 0.00 | 0.00 | 0.00 | 60 | 1023.8 |
| 20260905070218 | 68 | 180 | 23.0 | 31.0 | 0.00 | 0.00 | 0.00 | 59 | 1023.7 |
| 20260905065716 | 68 | 180 | 3.0 | 22.0 | 0.00 | 0.00 | 0.00 | 59 | 1023.5 |
| 20260905065213 | 67 | 225 | 0.0 | 38.0 | 0.00 | 0.00 | 0.00 | 59 | 1023.1 |
| 20260905064711 | 67 | 180 | 18.0 | 18.0 | 0.00 | 0.00 | 0.00 | 59 | 1022.9 |
| 20260905064208 | 67 | 180 | 0.0 | 23.0 | 0.00 | 0.00 | 0.00 | 59 | 1023.0 |
| 20260905063706 | 67 | 225 | 0.0 | 1.0 | 0.00 | 0.00 | 0.00 | 58 | 1023.0 |
| 20260905063204 | 68 | 315 | 0.0 | 22.0 | 0.00 | 0.00 | 0.00 | 58 | 1023.0 |
| 20260905062701 | 68 | 225 | 0.0 | 24.0 | 0.00 | 0.00 | 0.00 | 57 | 1023.5 |
| 20260905062159 | 68 | 180 | 2.0 | 23.0 | 0.00 | 0.00 | 0.00 | 57 | 1023.5 |
| 20260905061656 | 69 | 180 | 0.0 | 34.0 | 0.00 | 0.00 | 0.00 | 57 | 1023.2 |
| 20260905061154 | 69 | 225 | 0.0 | 25.0 | 0.00 | 0.00 | 0.00 | 57 | 1022.8 |
| 20260905060652 | 69 | 1.0 | 29.0 | 0.00 | 0.00 | 0.00 | 56 | 1022.4 | |
| 20260905060149 | 70 | 0 | 1.0 | 23.0 | 0.00 | 0.00 | 0.00 | 56 | 1022.5 |
| 20260905055144 | 71 | 0 | 0.0 | 29.0 | 0.00 | 0.00 | 0.00 | 56 | 1022.5 |
| 20260905054642 | 71 | 0 | 0.0 | 43.0 | 0.00 | 0.00 | 0.00 | 55 | 1022.5 |
| 20260905054140 | 72 | 315 | 3.0 | 48.0 | 0.00 | 0.00 | 0.00 | 55 | 1022.1 |
| 20260905053637 | 73 | 315 | 1.0 | 48.0 | 0.00 | 0.00 | 0.00 | 55 | 1022.3 |
| 20260905053135 | 73 | 45 | 0.0 | 22.0 | 0.00 | 0.00 | 0.00 | 55 | 1021.7 |
| 20260905052632 | 73 | 0 | 0.0 | 24.0 | 0.00 | 0.00 | 0.00 | 55 | 1021.7 |
| 20260905052130 | 73 | 0.0 | 24.0 | 0.00 | 0.00 | 0.00 | 54 | 1021.4 | |
| 20260905051627 | 73 | 45 | 1.0 | 25.0 | 0.00 | 0.00 | 0.00 | 54 | 1021.4 |
| 20260905051125 | 73 | 45 | 2.0 | 46.0 | 0.00 | 0.00 | 0.00 | 54 | 1020.8 |
| 20260905050623 | 73 | 45 | 1.0 | 25.0 | 0.00 | 0.00 | 0.00 | 53 | 1020.6 |
| 20260905050120 | 73 | 45 | 3.0 | 24.0 | 0.00 | 0.00 | 0.00 | 53 | 1020.4 |
| 20260905045618 | 73 | 45 | 1.0 | 46.0 | 0.00 | 0.00 | 0.00 | 53 | 1020.3 |
| 20260905045115 | 73 | 315 | 2.0 | 23.0 | 0.00 | 0.00 | 0.00 | 52 | 1020.1 |
| 20260905044613 | 72 | 0 | 0.0 | 27.0 | 0.00 | 0.00 | 0.00 | 52 | 1020.2 |
| 20260905044111 | 72 | 0 | 2.0 | 24.0 | 0.00 | 0.00 | 0.00 | 51 | 1020.0 |
| 20260905043608 | 72 | 180 | 1.0 | 23.0 | 0.00 | 0.00 | 0.00 | 50 | 1019.7 |
| 20260905043106 | 71 | 1.0 | 23.0 | 0.00 | 0.00 | 0.00 | 49 | 1019.7 | |
| 20260905042603 | 71 | 315 | 0.0 | 24.0 | 0.00 | 0.00 | 0.00 | 48 | 1019.9 |
| 20260905042101 | 72 | 14.0 | 24.0 | 0.00 | 0.00 | 0.00 | 47 | 1019.8 | |
| 20260905041559 | 72 | 270 | 1.0 | 31.0 | 0.00 | 0.00 | 0.00 | 46 | 1019.9 |
| 20260905041056 | 74 | 45 | 1.0 | 29.0 | 0.00 | 0.00 | 0.00 | 44 | 1019.7 |
| 20260905040554 | 75 | 45 | 1.0 | 21.0 | 0.00 | 0.00 | 0.00 | 44 | 1019.8 |
| 20260905040051 | 75 | 45 | 1.0 | 43.0 | 0.00 | 0.00 | 0.00 | 44 | 1019.5 |
| 20260905035549 | 75 | 45 | 1.0 | 26.0 | 0.00 | 0.00 | 0.00 | 44 | 1019.6 |
| 20260905035046 | 75 | 0 | 1.0 | 25.0 | 0.00 | 0.00 | 0.00 | 44 | 1019.4 |
| 20260905034544 | 75 | 45 | 0.0 | 37.0 | 0.00 | 0.00 | 0.00 | 44 | 1019.4 |
| 20260905033539 | 76 | 45 | 10.0 | 41.0 | 0.00 | 0.00 | 0.00 | 43 | 1019.1 |
| 20260905033037 | 76 | 0 | 2.0 | 27.0 | 0.00 | 0.00 | 0.00 | 43 | 1019.3 |
| 20260905032534 | 77 | 45 | 16.0 | 40.0 | 0.00 | 0.00 | 0.00 | 43 | 1019.0 |
| 20260905032032 | 79 | 315 | 5.0 | 24.0 | 0.00 | 0.00 | 0.00 | 43 | 1018.9 |
| 20260905031530 | 79 | 45 | 1.0 | 26.0 | 0.00 | 0.00 | 0.00 | 43 | 1018.2 |
| 20260905031027 | 79 | 45 | 1.0 | 35.0 | 0.00 | 0.00 | 0.00 | 43 | 1017.9 |
| 20260905030525 | 79 | 315 | 0.0 | 42.0 | 0.00 | 0.00 | 0.00 | 42 | 1017.3 |
| 20260905030022 | 79 | 180 | 0.0 | 40.0 | 0.00 | 0.00 | 0.00 | 42 | 1017.2 |
| 20260905025520 | 79 | 225 | 2.0 | 44.0 | 0.00 | 0.00 | 0.00 | 42 | 1017.2 |
| 20260905025017 | 79 | 225 | 2.0 | 39.0 | 0.00 | 0.00 | 0.00 | 41 | 1017.0 |
| 20260905024515 | 79 | 180 | 3.0 | 42.0 | 0.00 | 0.00 | 0.00 | 40 | 1016.9 |
| 20260905023510 | 80 | 225 | 3.0 | 45.0 | 0.00 | 0.00 | 0.00 | 39 | 1017.0 |
| 20260905023008 | 81 | 180 | 1.0 | 48.0 | 0.00 | 0.00 | 0.00 | 39 | 1016.8 |
| 20260905022505 | 80 | 180 | 1.0 | 43.0 | 0.00 | 0.00 | 0.00 | 39 | 1016.7 |
| 20260905022003 | 82 | 180 | 2.0 | 23.0 | 0.00 | 0.00 | 0.00 | 38 | 1016.5 |
| 20260905021501 | 82 | 225 | 21.0 | 29.0 | 0.00 | 0.00 | 0.00 | 38 | 1016.3 |
| 20260905020958 | 81 | 225 | 2.0 | 32.0 | 0.00 | 0.00 | 0.00 | 38 | 1016.5 |
| 20260905020456 | 81 | 180 | 2.0 | 22.0 | 0.00 | 0.00 | 0.00 | 38 | 1016.4 |
| 20260905015953 | 81 | 225 | 2.0 | 24.0 | 0.00 | 0.00 | 0.00 | 38 | 1016.3 |
| 20260905015451 | 81 | 225 | 1.0 | 22.0 | 0.00 | 0.00 | 0.00 | 38 | 1016.4 |
| 20260905014949 | 82 | 180 | 2.0 | 38.0 | 0.00 | 0.00 | 0.00 | 38 | 1016.3 |
| 20260905014446 | 82 | 225 | 1.0 | 27.0 | 0.00 | 0.00 | 0.00 | 38 | 1016.2 |
| 20260905013944 | 82 | 180 | 0.0 | 41.0 | 0.00 | 0.00 | 0.00 | 38 | 1016.1 |
| 20260905013441 | 82 | 90 | 1.0 | 30.0 | 0.00 | 0.00 | 0.00 | 38 | 1016.1 |
| 20260905012939 | 82 | 180 | 2.0 | 34.0 | 0.00 | 0.00 | 0.00 | 39 | 1016.1 |
| 20260905012436 | 82 | 225 | 2.0 | 26.0 | 0.00 | 0.00 | 0.00 | 39 | 1016.0 |
| 20260905011934 | 82 | 180 | 3.0 | 31.0 | 0.00 | 0.00 | 0.00 | 39 | 1016.0 |
| 20260905011432 | 82 | 225 | 19.0 | 22.0 | 0.00 | 0.00 | 0.00 | 39 | 1016.0 |
| 20260905010929 | 82 | 225 | 23.0 | 51.0 | 0.00 | 0.00 | 0.00 | 40 | 1016.1 |
| 20260905010427 | 82 | 180 | 2.0 | 40.0 | 0.00 | 0.00 | 0.00 | 40 | 1016.0 |
| 20260905005924 | 82 | 180 | 2.0 | 32.0 | 0.00 | 0.00 | 0.00 | 40 | 1015.9 |
| 20260905005422 | 81 | 180 | 5.0 | 64.0 | 0.00 | 0.00 | 0.00 | 41 | 1015.8 |
| 20260905004920 | 81 | 180 | 2.0 | 23.0 | 0.00 | 0.00 | 0.00 | 41 | 1015.8 |
| 20260905004417 | 80 | 225 | 2.0 | 23.0 | 0.00 | 0.00 | 0.00 | 41 | 1015.8 |
| 20260905003915 | 80 | 225 | 21.0 | 23.0 | 0.00 | 0.00 | 0.00 | 41 | 1015.8 |
| 20260905003412 | 80 | 225 | 3.0 | 28.0 | 0.00 | 0.00 | 0.00 | 41 | 1015.9 |
| 20260905002910 | 80 | 225 | 0.0 | 20.0 | 0.00 | 0.00 | 0.00 | 42 | 1015.8 |
| 20260905002408 | 80 | 180 | 2.0 | 22.0 | 0.00 | 0.00 | 0.00 | 42 | 1015.8 |
| 20260905001905 | 80 | 225 | 3.0 | 33.0 | 0.00 | 0.00 | 0.00 | 42 | 1015.8 |
| 20260905001403 | 79 | 180 | 20.0 | 22.0 | 0.00 | 0.00 | 0.00 | 42 | 1015.7 |
| 20260905000900 | 80 | 180 | 0.0 | 24.0 | 0.00 | 0.00 | 0.00 | 42 | 1015.7 |
| 20260905000358 | 80 | 225 | 1.0 | 23.0 | 0.00 | 0.00 | 0.00 | 43 | 1015.6 |
| 20260904235855 | 80 | 180 | 0.0 | 22.0 | 0.00 | 0.00 | 0.00 | 43 | 1015.6 |
| 20260904235353 | 79 | 180 | 0.0 | 37.0 | 0.00 | 0.00 | 0.00 | 43 | 1015.5 |
| 20260904234851 | 79 | 180 | 0.0 | 35.0 | 0.00 | 0.00 | 0.00 | 44 | 1015.6 |
| 20260904234349 | 78 | 225 | 2.0 | 22.0 | 0.00 | 0.00 | 0.00 | 44 | 1015.5 |
| 20260904233846 | 78 | 180 | 1.0 | 16.0 | 0.00 | 0.00 | 0.00 | 44 | 1015.5 |
| 20260904232841 | 77 | 180 | 1.0 | 24.0 | 0.00 | 0.00 | 0.00 | 45 | 1015.5 |
| 20260904232339 | 77 | 225 | 3.0 | 22.0 | 0.00 | 0.00 | 0.00 | 46 | 1015.5 |
| 20260904231836 | 75 | 180 | 1.0 | 24.0 | 0.00 | 0.00 | 0.00 | 47 | 1015.4 |
| 20260904231334 | 72 | 180 | 0.0 | 22.0 | 0.00 | 0.00 | 0.00 | 47 | 1015.4 |
| 20260904230831 | 71 | 135 | 0.0 | 21.0 | 0.00 | 0.00 | 0.00 | 47 | 1015.4 |
| 20260904230329 | 70 | 135 | 0.0 | 11.0 | 0.00 | 0.00 | 0.00 | 46 | 1015.3 |
| 20260904225827 | 70 | 180 | 0.0 | 0.0 | 0.00 | 0.00 | 0.00 | 46 | 1015.2 |
| 20260904225324 | 70 | 225 | 0.0 | 22.0 | 0.00 | 0.00 | 0.00 | 46 | 1015.3 |
| 20260904224822 | 71 | 225 | 0.0 | 0.0 | 0.00 | 0.00 | 0.00 | 45 | 1015.2 |
| 20260904224319 | 71 | 180 | 0.0 | 0.0 | 0.00 | 0.00 | 0.00 | 45 | 1015.1 |
| 20260904223817 | 71 | 180 | 0.0 | 0.0 | 0.00 | 0.00 | 0.00 | 45 | 1015.0 |
| 20260904223314 | 71 | 180 | 0.0 | 0.0 | 0.00 | 0.00 | 0.00 | 45 | 1015.0 |
| 20260904222812 | 71 | 180 | 0.0 | 0.0 | 0.00 | 0.00 | 0.00 | 45 | 1015.1 |
| 20260904222310 | 71 | 180 | 0.0 | 0.0 | 0.00 | 0.00 | 0.00 | 44 | 1015.1 |
| 20260904221807 | 71 | 180 | 0.0 | 0.0 | 0.00 | 0.00 | 0.00 | 44 | 1015.1 |
| 20260904221305 | 71 | 180 | 0.0 | 0.0 | 0.00 | 0.00 | 0.00 | 44 | 1015.1 |
| 20260904220802 | 72 | 180 | 0.0 | 0.0 | 0.00 | 0.00 | 0.00 | 44 | 1015.1 |
| 20260904220300 | 72 | 180 | 0.0 | 0.0 | 0.00 | 0.00 | 0.00 | 43 | 1015.2 |
| 20260904215758 | 72 | 180 | 0.0 | 0.0 | 0.00 | 0.00 | 0.00 | 43 | 1015.2 |